EW6519 Weather Reports


Display with metric or nautical units.
time (UTC)temp
F
wind
direction
speed
MPH
gust
MPH
rain 1hr
in
rain 24hr
in
rain mn
in
humidity
%
barometer
mb
20260903214600 96 143 0.0 7.0 0.00 0.00 0.00 49 1011.5
20260903213049 97 231 0.0 5.0 0.00 0.00 0.00 47 1011.4
20260903211552 96 280 1.0 8.0 0.00 0.00 0.00 47 1011.4
20260903210056 97 239 1.0 8.0 0.00 0.00 0.00 46 1011.7
20260903204558 97 183 0.0 12.0 0.00 0.00 0.00 48 1011.9
20260903203041 98 222 2.0 8.0 0.00 0.00 0.00 46 1012.0
20260903201540 97 275 0.0 5.0 0.00 0.00 0.00 47 1012.3
20260903200039 97 86 0.0 10.0 0.00 0.00 0.00 49 1012.6
20260903194537 96 264 0.0 0.0 0.00 0.00 0.00 48 1012.8
20260903193034 97 219 2.0 8.0 0.00 0.00 0.00 48 1012.9
20260903191534 98 22 0.0 5.0 0.00 0.00 0.00 48 1013.0
20260903190036 98 250 1.0 6.0 0.00 0.00 0.00 47 1013.1
20260903184531 97 279 0.0 5.0 0.00 0.00 0.00 48 1013.1
20260903183028 98 205 0.0 3.0 0.00 0.00 0.00 46 1013.2
20260903181525 98 172 0.0 6.0 0.00 0.00 0.00 47 1013.3
20260903180024 97 237 0.0 3.0 0.00 0.00 0.00 47 1013.5
20260903174521 97 277 0.0 5.0 0.00 0.00 0.00 48 1013.6
20260903173015 96 214 2.0 11.0 0.00 0.00 0.00 49 1013.8
20260903171515 95 297 0.0 4.0 0.00 0.00 0.00 51 1013.9
20260903170020 95 257 0.0 4.0 0.00 0.00 0.00 51 1014.1
20260903164512 95 203 0.0 0.0 0.00 0.00 0.00 50 1014.2
20260903163011 95 307 0.0 12.0 0.00 0.00 0.00 51 1014.3
20260903161509 96 287 0.0 2.0 0.00 0.00 0.00 52 1014.4
20260903160007 96 258 0.0 3.0 0.00 0.00 0.00 50 1014.5
20260903154503 95 40 0.0 6.0 0.00 0.00 0.00 52 1014.5
20260903153108 94 229 0.0 7.0 0.00 0.00 0.00 52 1014.4
20260903151609 94 68 0.0 1.0 0.00 0.00 0.00 53 1014.4
20260903150103 93 242 3.0 8.0 0.00 0.00 0.00 55 1014.5
20260903144557 92 226 1.0 5.0 0.00 0.00 0.00 56 1014.3
20260903143054 92 236 0.0 0.0 0.00 0.00 0.00 56 1014.4
20260903141549 91 207 0.0 0.0 0.00 0.00 0.00 61 1014.4
20260903140048 90 153 0.0 0.0 0.00 0.00 0.00 63 1014.5
20260903134546 88 236 0.0 3.0 0.00 0.00 0.00 65 1014.6
20260903133039 87 254 0.0 3.0 0.00 0.00 0.00 66 1014.8
20260903131537 86 249 0.0 0.0 0.00 0.00 0.00 68 1014.9
20260903130034 84 219 0.0 0.0 0.00 0.00 0.00 71 1015.0
20260903124527 82 230 0.0 0.0 0.00 0.00 0.00 74 1015.1
20260903123029 81 233 0.0 0.0 0.00 0.00 0.00 77 1015.0
20260903121525 80 219 0.0 0.0 0.00 0.00 0.00 78 1015.1
20260903120023 79 238 0.0 0.0 0.00 0.00 0.00 79 1015.0
20260903114521 79 232 0.0 0.0 0.00 0.00 0.00 80 1014.9
20260903113021 78 211 0.0 0.0 0.00 0.00 0.00 81 1014.8
20260903111518 78 222 0.0 0.0 0.00 0.00 0.00 82 1014.7
20260903110015 77 237 0.0 0.0 0.00 0.00 0.00 83 1014.4
20260903104514 77 239 0.0 0.0 0.00 0.00 0.00 84 1014.3
20260903103013 77 239 0.0 0.0 0.00 0.00 0.00 84 1014.3
20260903101533 77 252 0.0 0.0 0.00 0.00 0.00 84 1014.3
20260903100011 77 234 0.0 0.0 0.00 0.00 0.00 84 1014.2
20260903094511 77 141 0.0 0.0 0.00 0.00 0.00 84 1014.2
20260903093009 77 140 0.0 0.0 0.00 0.00 0.00 85 1014.2
20260903091508 77 141 0.0 0.0 0.00 0.00 0.00 84 1014.2
20260903090007 77 140 0.0 0.0 0.00 0.00 0.00 84 1014.1
20260903084522 77 140 0.0 0.0 0.00 0.00 0.00 85 1014.1
20260903083012 77 140 0.0 0.0 0.00 0.00 0.00 84 1014.1
20260903081503 78 141 0.0 0.0 0.00 0.00 0.00 84 1014.1
20260903080002 78 140 0.0 0.0 0.00 0.00 0.00 84 1014.1
20260903074606 78 140 0.0 0.0 0.00 0.00 0.00 83 1013.9
20260903073059 79 141 0.0 6.0 0.00 0.00 0.00 82 1013.9
20260903071558 79 130 0.0 0.0 0.00 0.00 0.00 82 1013.7
20260903070056 78 130 0.0 0.0 0.00 0.00 0.00 83 1013.8
20260903064603 79 130 0.0 0.0 0.00 0.00 0.00 82 1013.8
20260903063053 79 130 0.0 0.0 0.00 0.00 0.00 81 1013.8
20260903061552 79 130 0.0 0.0 0.00 0.00 0.00 81 1013.7
20260903060055 80 130 0.0 0.0 0.00 0.00 0.00 80 1013.7
20260903054550 79 130 0.0 0.0 0.00 0.00 0.00 81 1013.8
20260903053102 80 130 0.0 0.0 0.00 0.00 0.00 80 1013.8
20260903051549 80 130 0.0 0.0 0.00 0.00 0.00 80 1013.7
20260903050046 80 130 0.0 0.0 0.00 0.00 0.00 79 1013.7
20260903044544 80 130 0.0 0.0 0.00 0.00 0.00 80 1013.5
20260903043042 81 130 0.0 0.0 0.00 0.00 0.00 79 1013.5
20260903041551 81 130 0.0 0.0 0.00 0.00 0.00 78 1013.5
20260903040046 81 130 0.0 0.0 0.00 0.00 0.00 77 1013.6
20260903034538 82 130 0.0 0.0 0.00 0.00 0.00 76 1013.6
20260903033037 82 130 0.0 0.0 0.00 0.00 0.00 75 1013.6
20260903031536 83 130 0.0 0.0 0.00 0.00 0.00 75 1013.8
20260903030041 83 130 0.0 0.0 0.00 0.00 0.00 74 1013.9
20260903024535 83 130 0.0 0.0 0.00 0.00 0.00 73 1013.9
20260903023036 84 130 0.0 0.0 0.00 0.00 0.00 71 1013.9
20260903021534 85 130 0.0 0.0 0.00 0.00 0.00 70 1013.9
20260903020033 85 165 0.0 0.0 0.00 0.00 0.00 69 1014.0
20260903014533 85 137 0.0 0.0 0.00 0.00 0.00 68 1013.9
20260903013034 86 203 0.0 0.0 0.00 0.00 0.00 67 1013.8
20260903011532 86 203 0.0 0.0 0.00 0.00 0.00 66 1013.6
20260903010035 87 216 0.0 0.0 0.00 0.00 0.00 65 1013.4
20260903004531 88 217 0.0 0.0 0.00 0.00 0.00 63 1013.2
20260903003030 88 216 0.0 0.0 0.00 0.00 0.00 62 1013.1
20260903001550 89 216 0.0 0.0 0.00 0.00 0.00 60 1013.2
20260903000029 90 231 0.0 0.0 0.00 0.00 0.00 59 1013.2
20260902234528 91 226 0.0 0.0 0.00 0.00 0.00 58 1013.2
20260902233026 91 145 0.0 0.0 0.00 0.00 0.00 57 1013.3
20260902231529 92 233 0.0 6.0 0.00 0.00 0.00 56 1013.4
20260902230025 93 250 0.0 6.0 0.00 0.00 0.00 55 1013.4
20260902224524 93 243 0.0 5.0 0.00 0.00 0.00 54 1013.5
20260902223023 93 242 1.0 6.0 0.00 0.00 0.00 53 1013.4
20260902221522 94 226 0.0 0.0 0.00 0.00 0.00 52 1013.5
20260902220021 95 241 0.0 2.0 0.00 0.00 0.00 51 1013.5